Theta_e
323 322 322 322 323 324 324 325 326 327 327 326 326 328 329 332 331 330 330 329 331 330 329 330 328 330 333 334 335 331 328 331 334 335 334 327 320 318 323 326 330 333 333 334 334 336 336 336 337 337 337 336 337 336 337 337 336 336 336 336 335 335 335 335 335 335 335 335 335 335 335 334 334 334 334 333 333 333 332 332 332 332 331 332 333 332 333 333 333 333 333 333 334 333 332 331 332
323 323 323 324 323 324 324 324 325 326 327 325 327 329 330 332 331 331 332 330 332 330 329 331 330 331 332 333 333 333 327 320 321 328 324 317 319 318 319 322 326 330 330 332 332 334 335 335 336 336 336 335 335 335 335 335 335 335 335 334 334 334 334 334 334 334 334 334 334 334 333 333 333 332 332 332 332 331 331 332 332 331 331 331 332 332 332 332 332 333 333 333 333 332 332 331 330
322 322 323 324 324 323 324 323 323 324 326 326 326 330 331 332 331 331 330 329 329 326 327 328 329 330 332 334 331 333 326 316 313 319 318 313 317 316 316 319 321 326 328 329 330 331 332 332 333 333 334 333 333 333 333 333 334 334 333 333 333 333 333 333 333 332 332 332 332 331 332 332 332 332 330 330 330 330 329 330 330 330 330 330 330 330 330 330 331 331 331 331 331 331 331 330 330
322 322 323 325 323 323 323 322 321 322 323 325 327 330 331 332 331 329 328 327 326 324 326 328 329 323 326 327 321 325 318 312 312 313 316 311 311 312 313 316 317 322 325 326 327 328 329 330 330 330 331 331 331 331 331 332 332 331 332 331 331 331 331 331 330 329 329 329 329 329 329 329 329 329 328 328 328 327 327 327 327 327 327 328 327 327 327 327 328 328 328 329 329 329 328 329 328
322 322 323 325 323 322 323 322 321 322 322 324 328 330 329 329 329 328 327 326 325 325 327 329 330 320 316 312 310 317 310 310 312 309 312 310 309 310 312 313 314 318 321 323 324 325 326 327 328 328 328 329 329 329 329 329 329 329 329 329 329 328 328 329 327 327 327 327 327 326 326 326 326 326 325 326 325 324 324 323 324 324 325 325 326 326 325 325 326 326 326 326 326 326 325 326 326
323 323 323 324 322 321 323 321 319 319 322 324 329 330 327 327 328 328 327 326 326 327 328 328 328 319 312 308 306 308 305 309 311 306 308 308 307 308 311 310 312 316 317 319 320 321 323 324 325 326 326 326 327 326 327 327 327 326 326 326 326 327 326 326 325 325 324 324 324 324 324 323 324 323 323 323 323 323 322 321 321 321 321 322 323 323 323 323 323 323 323 323 324 323 323 323 324
323 323 323 323 322 322 322 319 317 317 323 326 328 328 327 327 327 327 328 329 328 328 329 324 321 319 315 311 309 306 304 306 306 305 305 305 306 307 309 308 312 316 315 316 317 318 320 321 322 323 323 323 324 324 324 324 324 324 324 324 324 324 324 324 323 323 323 322 322 322 322 321 321 321 321 321 321 321 320 319 319 319 319 319 320 320 320 321 321 321 321 321 321 321 321 322 322
323 323 323 323 323 324 323 320 321 322 325 326 327 328 327 327 327 328 329 329 330 329 327 323 319 319 315 312 310 306 304 304 304 303 303 304 304 305 306 306 311 314 312 314 315 316 317 318 318 319 319 320 320 321 321 321 321 321 321 321 321 321 321 321 321 321 320 320 320 320 319 318 319 318 318 318 318 318 318 318 318 318 317 318 317 317 318 319 318 318 318 318 318 319 320 320 320
322 323 323 323 323 324 324 323 324 326 327 327 327 327 326 326 326 327 328 328 329 329 326 324 323 321 314 310 309 306 304 304 303 302 302 302 302 303 304 304 308 309 310 311 313 315 316 316 317 318 318 317 317 318 318 319 319 319 319 319 319 319 319 319 319 319 318 318 318 318 317 317 317 317 317 317 317 317 317 317 317 317 317 317 317 316 315 316 316 316 316 316 315 315 317 318 319
322 322 323 324 323 324 325 324 325 327 327 327 327 326 325 324 325 326 327 328 328 328 324 321 320 318 313 310 308 305 304 303 302 302 301 301 300 301 301 303 305 305 308 310 312 315 315 316 317 318 317 317 317 317 317 318 318 318 318 317 317 317 318 318 318 317 317 317 317 316 316 316 316 316 316 316 316 316 315 315 314 314 314 315 316 315 314 315 315 315 316 316 314 313 313 314 317
322 322 323 324 322 323 324 325 326 328 327 326 326 325 324 324 325 326 326 327 327 326 323 321 318 313 311 308 307 305 302 302 302 301 300 300 299 299 300 302 303 304 305 308 311 313 314 315 316 316 316 316 315 315 316 316 316 316 316 316 316 317 317 317 316 316 316 316 316 315 314 314 314 312 311 310 310 309 308 308 307 307 307 309 310 310 310 310 310 310 311 312 311 310 309 309 310
322 322 323 324 323 323 323 327 329 328 326 326 326 324 323 323 325 325 326 327 327 326 320 318 318 314 312 309 306 304 302 301 301 300 299 299 297 297 299 302 303 303 303 304 308 310 311 312 314 314 314 314 313 313 314 314 315 315 315 315 315 315 315 315 315 315 314 314 313 311 310 309 307 304 302 301 300 300 300 299 299 299 300 301 302 302 302 302 302 303 304 304 304 304 304 304 304
323 322 323 324 324 325 325 328 328 327 327 326 326 323 323 324 325 325 325 323 321 324 316 312 318 316 311 308 305 304 303 301 300 299 298 298 296 296 300 302 302 301 301 302 304 306 308 309 311 312 312 313 312 313 313 313 313 313 313 313 314 314 314 314 314 313 311 309 307 304 301 300 298 297 296 294 294 294 294 294 294 294 294 295 295 296 296 296 297 297 297 298 298 299 300 300 301
323 322 323 324 323 324 325 327 327 327 328 325 324 323 322 320 322 322 321 319 312 312 312 307 311 314 310 308 306 304 303 301 300 299 298 297 296 295 298 301 300 299 299 299 300 301 304 306 308 310 311 311 312 312 312 311 311 312 312 312 312 311 311 309 306 305 303 300 298 296 294 294 293 293 293 293 293 293 293 293 293 293 293 293 293 293 293 293 293 294 294 294 294 295 296 297 297
322 321 322 323 323 324 325 325 325 327 327 324 322 321 318 313 316 316 313 316 307 304 309 306 305 312 313 310 307 303 301 300 299 299 298 296 295 294 296 298 299 297 296 296 296 298 300 302 304 305 305 305 306 307 306 305 305 305 305 305 304 302 301 298 297 296 294 294 293 293 292 292 292 292 292 292 292 292 292 293 292 292 292 293 293 293 293 293 293 293 293 293 293 293 294 294 294
321 321 322 324 324 324 324 323 324 327 326 322 320 319 317 311 310 310 307 310 305 301 305 303 301 306 306 304 302 299 298 298 298 297 297 296 294 294 295 296 297 295 293 293 293 294 296 297 297 297 297 297 297 298 298 297 296 296 296 295 294 294 293 292 292 292 292 292 292 292 292 292 292 292 292 292 291 292 292 292 292 292 292 292 293 293 292 293 293 293 293 293 293 293 293 293 293
321 322 324 325 324 324 323 322 324 326 324 321 321 319 317 312 308 307 306 306 304 301 300 299 298 298 297 297 296 295 296 296 295 295 295 294 294 294 293 294 294 293 291 291 291 291 292 292 292 293 293 292 292 292 292 292 291 291 291 291 291 291 291 291 292 292 292 292 292 292 291 291 291 291 291 291 291 291 291 292 292 292 292 292 292 292 292 292 292 292 292 293 293 293 293 293 293
321 323 324 325 325 324 321 321 323 323 321 320 320 318 317 313 311 309 307 305 303 302 299 298 297 296 295 294 293 293 294 294 293 292 292 292 293 293 292 291 291 290 289 289 289 289 289 290 290 290 290 290 290 290 290 290 290 290 290 290 290 290 290 291 291 291 291 291 291 291 290 290 290 290 290 290 290 291 291 291 291 292 292 292 292 292 292 292 292 292 292 292 292 292 292 292 292
321 323 324 324 324 323 320 321 322 320 317 316 314 314 313 310 310 309 306 305 304 302 301 299 297 296 294 293 292 291 291 291 290 290 290 290 291 291 290 290 289 288 288 287 287 288 288 288 288 289 289 289 289 289 289 289 289 289 289 290 289 290 289 289 290 290 290 289 290 290 289 289 289 289 289 290 290 290 290 291 291 291 291 291 291 291 291 291 291 291 291 292 292 291 291 291 291
320 322 325 324 322 321 320 322 322 320 317 314 311 308 306 304 306 308 305 303 301 299 299 299 297 295 293 291 291 290 289 289 289 289 288 289 289 289 289 288 288 287 287 286 286 287 286 287 287 288 288 288 288 288 288 288 288 288 288 289 289 289 289 288 288 289 289 288 289 289 288 288 288 288 289 289 289 289 290 290 290 290 291 291 291 291 291 291 291 291 291 291 291 290 290 290 289
320 321 324 322 321 321 321 321 322 322 318 314 311 308 304 301 302 305 308 308 301 296 295 295 294 292 291 290 289 288 288 287 287 287 287 287 287 287 287 287 287 286 286 285 285 286 286 286 286 287 287 287 287 287 287 287 287 287 287 287 288 288 288 288 287 288 288 288 288 288 288 288 287 287 288 288 288 288 289 289 289 289 289 289 290 289 289 289 289 289 289 289 289 289 288 288 288
321 322 322 321 321 322 320 320 322 321 317 313 309 308 304 299 298 300 305 307 299 294 293 291 290 290 289 289 288 287 286 286 285 285 285 286 286 286 286 286 286 285 285 285 284 285 285 285 285 285 286 286 286 286 286 286 286 287 287 287 287 287 287 287 287 287 287 287 287 287 287 287 287 286 287 287 287 287 287 287 287 287 287 287 287 287 287 287 287 287 287 287 287 287 287 287 287
322 322 321 321 321 322 320 320 319 317 316 311 305 303 301 299 297 295 297 296 293 291 290 289 289 288 288 287 287 286 286 285 284 284 283 284 284 284 284 284 284 284 284 284 284 284 284 284 284 284 284 285 285 285 286 286 286 286 286 286 286 286 286 286 285 285 285 285 286 286 286 286 285 285 285 285 285 285 285 285 285 285 285 285 285 285 285 285 285 285 285 285 285 286 286 286 287
322 322 320 321 321 321 320 317 313 312 312 307 303 302 302 301 298 295 293 292 290 290 289 288 287 287 286 286 285 285 284 284 283 283 282 282 283 283 283 283 283 283 283 283 282 282 283 283 283 283 283 284 284 284 284 284 285 285 285 285 285 285 285 284 284 284 284 284 284 284 284 284 284 284 284 284 284 284 284 284 284 283 283 283 283 283 283 283 283 283 283 284 284 285 286 285 286
321 321 320 320 321 320 316 312 308 306 306 304 302 301 299 299 296 293 292 291 290 289 288 287 286 286 285 284 284 284 283 283 283 282 281 281 282 282 282 282 282 282 281 282 281 281 281 282 282 282 282 282 282 283 283 283 284 284 284 284 284 284 283 283 283 283 283 283 283 283 283 283 283 282 282 282 282 283 282 283 282 282 282 281 281 282 282 282 282 282 282 283 283 284 286 286 286
318 319 319 319 320 317 313 309 307 305 304 304 301 299 297 296 296 294 291 290 289 288 287 287 286 285 284 284 283 282 282 282 282 281 281 281 281 281 281 281 281 280 280 280 280 280 280 281 281 281 281 281 282 282 282 282 283 283 283 283 283 283 283 282 282 282 282 282 282 282 282 282 282 281 281 281 281 281 281 281 281 281 281 280 280 281 281 281 281 281 281 282 282 283 285 285 285
315 314 316 317 319 316 313 309 307 306 305 303 300 298 297 296 299 297 290 289 290 288 287 286 285 284 283 283 282 281 281 281 281 281 281 281 280 280 280 280 280 279 279 279 279 279 279 280 280 280 280 280 281 282 282 282 282 282 282 282 282 282 282 281 281 281 281 281 281 281 281 281 281 281 280 280 280 280 280 280 280 280 280 280 280 280 280 280 280 280 280 281 281 282 283 283 283
312 313 315 315 317 316 314 310 308 309 306 302 300 298 298 297 298 295 290 289 289 288 286 285 284 283 283 283 282 281 280 280 279 279 279 279 279 279 279 279 278 278 278 278 278 278 279 279 279 279 279 280 280 281 281 282 281 281 281 281 281 281 281 280 280 280 280 280 280 280 280 280 280 280 279 279 279 279 280 279 279 279 279 279 279 280 280 279 279 280 280 280 280 281 282 282 282
312 313 317 316 317 318 315 311 309 310 307 302 303 306 304 298 294 291 289 289 289 288 287 285 284 283 282 282 281 281 280 279 279 279 278 278 278 278 278 277 277 278 277 277 278 278 278 278 278 279 279 279 279 280 280 280 280 281 281 280 280 280 280 279 279 279 278 278 279 279 279 279 279 279 278 278 279 279 279 279 279 279 278 278 279 279 279 279 279 279 279 279 279 280 281 282 281
313 314 317 318 320 318 312 311 311 311 307 302 307 318 310 296 292 291 290 289 289 289 287 286 285 283 283 282 282 281 280 279 278 278 277 277 277 277 277 277 276 277 277 277 277 277 277 277 278 278 278 278 278 279 279 279 279 280 280 279 279 278 278 278 278 277 277 277 278 278 278 278 278 278 278 278 278 278 278 278 278 278 277 277 277 277 278 278 277 278 278 278 279 279 280 281 280
315 315 316 318 322 317 309 309 313 312 307 302 309 322 312 296 292 291 290 290 290 290 288 286 285 284 283 282 282 281 280 279 278 277 277 277 277 276 276 276 276 276 276 276 276 277 277 277 277 277 277 277 277 278 278 278 278 278 278 278 277 277 277 277 277 277 277 277 277 277 277 277 277 277 277 277 277 277 276 276 276 276 276 276 276 276 276 276 277 277 277 278 278 279 280 280 279
315 317 318 318 319 317 309 306 309 311 307 303 310 320 310 297 293 291 290 291 291 290 288 286 285 284 283 282 281 281 280 279 278 277 277 276 276 276 276 276 275 275 275 276 276 276 276 276 276 276 276 276 277 277 277 277 277 277 277 277 277 276 276 276 276 276 276 276 276 276 276 276 276 276 276 276 275 275 275 275 275 275 275 276 276 276 276 276 276 276 277 277 277 278 279 279 278
315 316 318 317 317 318 313 306 305 306 308 306 309 315 307 297 294 291 290 291 291 290 287 286 285 283 283 282 281 281 280 279 278 277 277 276 276 276 275 275 275 275 275 275 275 276 276 276 276 276 276 276 276 276 276 276 276 276 276 276 276 276 275 275 275 275 275 275 275 275 275 275 275 275 275 274 274 274 274 274 274 274 275 275 276 276 275 275 275 276 276 276 277 277 278 278 277
317 316 317 316 315 316 314 310 305 303 308 309 308 310 303 296 293 291 290 291 291 290 288 286 285 284 283 282 281 281 280 280 279 277 276 276 276 275 275 275 274 274 274 274 275 275 275 275 275 275 275 275 275 275 275 276 275 275 275 275 275 275 275 274 274 274 274 274 274 274 274 274 274 274 274 273 273 273 273 273 273 273 274 275 275 275 275 275 274 275 275 275 276 276 277 277 276
317 316 316 315 314 314 314 312 306 303 308 308 307 308 300 293 292 291 290 290 291 290 288 287 285 284 283 282 282 281 280 279 278 277 276 276 276 275 275 274 274 274 274 274 274 274 274 275 275 275 275 275 275 275 275 275 275 275 275 274 274 274 274 273 273 273 273 273 273 273 273 272 273 273 272 272 272 272 272 272 272 272 273 274 274 274 274 274 274 274 274 275 275 275 276 276 275
314 315 314 315 314 313 313 310 304 302 308 308 307 308 301 294 292 291 290 290 290 290 288 287 285 284 283 282 282 280 279 279 277 277 276 276 275 275 275 274 274 274 274 274 274 274 274 274 274 275 275 275 275 275 275 275 275 275 274 274 274 273 273 273 272 272 272 272 272 272 272 272 272 272 271 271 271 271 271 271 272 272 272 273 273 273 273 273 273 273 273 274 274 274 275 275 274
313 314 314 314 313 313 311 307 301 301 308 306 302 303 300 296 293 291 290 289 289 289 287 287 286 284 283 282 281 280 279 278 277 276 276 275 275 275 275 274 274 274 273 274 274 274 274 274 274 274 275 275 275 274 274 274 275 275 274 274 273 273 273 272 272 271 271 271 271 271 271 271 271 271 271 271 271 271 271 271 271 271 271 271 272 272 272 272 272 272 272 273 274 273 274 274 274
313 314 315 314 314 313 309 305 302 301 307 305 298 299 299 296 294 291 289 289 289 289 288 287 286 285 284 282 281 280 279 278 277 277 276 275 275 275 274 274 274 274 273 273 273 273 273 273 273 273 274 274 274 273 273 273 273 274 274 273 273 272 272 272 271 271 270 270 270 270 270 270 270 270 270 270 270 270 270 270 270 270 270 270 271 271 271 271 271 271 272 272 273 273 273 274 273
313 314 314 313 313 312 308 304 302 300 306 305 298 300 301 295 293 291 289 290 290 289 289 288 286 285 284 282 281 280 279 278 278 277 276 276 275 275 274 274 274 273 273 273 272 272 273 273 273 272 272 273 273 273 272 273 273 273 273 273 272 272 271 271 271 270 270 269 269 269 269 269 270 270 270 270 270 270 270 270 270 270 270 270 270 270 270 270 270 270 271 271 272 272 272 273 273
313 313 312 313 312 312 310 307 302 299 303 303 299 301 302 295 292 291 290 290 290 288 288 287 286 285 284 282 281 280 279 278 278 277 276 276 275 275 274 274 273 273 273 272 272 272 272 272 272 272 272 272 272 272 272 272 272 272 272 272 272 272 271 271 271 270 270 269 269 269 269 269 269 270 270 270 270 270 269 269 269 269 269 269 268 269 269 269 269 269 270 270 271 271 272 272 272
312 312 311 312 311 311 310 306 302 301 301 300 300 305 306 299 294 293 291 289 288 287 287 286 285 285 284 282 281 280 280 279 278 278 277 276 276 275 274 274 273 273 272 272 272 271 271 271 271 271 271 272 272 272 272 272 272 272 272 272 272 272 271 271 271 270 270 269 269 268 268 269 269 269 270 269 269 269 269 269 269 268 268 268 267 268 268 268 268 268 269 269 270 271 271 271 271
312 313 311 311 311 311 309 305 305 307 307 303 303 311 312 303 298 297 292 288 288 288 286 286 285 283 282 282 281 280 280 279 278 278 277 276 275 275 274 273 273 273 272 271 271 271 271 271 271 271 271 271 272 272 271 271 271 271 272 272 272 272 272 271 270 270 269 269 269 268 268 269 269 269 269 269 269 268 268 268 267 267 267 267 266 267 267 267 267 267 267 268 269 270 270 270 270
313 311 309 310 311 311 309 307 308 312 311 304 302 311 313 306 302 298 293 289 290 289 287 286 285 283 282 282 281 280 279 279 278 278 277 276 275 275 274 274 273 273 272 271 271 271 271 270 270 270 270 271 271 271 271 270 270 270 271 271 271 271 271 270 269 269 268 268 268 268 268 268 268 268 268 268 268 267 267 266 265 265 265 266 266 266 266 265 265 266 266 267 268 269 269 270 270
312 307 306 308 310 311 310 309 310 311 309 304 302 306 311 311 305 297 293 292 292 290 288 287 285 283 283 282 281 280 279 278 278 278 277 276 275 275 274 273 273 272 272 271 271 271 270 270 270 270 270 270 270 271 271 270 270 270 270 270 270 270 270 269 269 269 268 268 268 268 267 267 267 267 267 267 267 266 266 265 264 264 264 265 265 265 265 264 264 265 265 266 266 267 268 269 269
310 304 304 306 308 309 309 309 310 308 307 307 306 304 308 312 303 293 292 294 294 294 291 288 286 284 283 282 281 280 279 279 279 278 277 276 275 275 274 273 272 272 271 271 271 270 270 270 270 269 269 269 270 270 270 270 269 269 269 269 269 269 269 268 268 268 267 267 267 267 267 266 266 266 266 266 266 265 264 264 263 263 264 264 264 264 263 263 263 264 264 265 265 266 267 268 268
305 302 303 305 305 306 306 308 309 306 307 310 309 305 309 312 304 295 294 295 297 298 294 290 287 284 283 282 280 279 279 279 278 277 277 276 275 274 273 273 272 272 271 271 271 270 270 270 269 269 269 269 269 269 269 269 269 268 268 268 268 268 268 268 268 267 267 267 266 266 266 265 265 265 265 264 264 263 263 263 262 262 263 263 263 263 263 262 262 263 263 264 264 264 265 266 266
302 304 305 306 305 305 305 306 307 308 309 310 308 307 308 310 307 302 299 298 299 299 297 292 287 284 283 282 280 279 278 278 278 277 276 275 274 274 273 273 272 272 271 271 271 270 270 270 269 269 268 268 268 268 268 268 268 267 267 267 267 267 267 267 267 267 266 266 265 265 265 265 264 264 264 263 262 262 262 262 262 262 262 262 262 262 262 261 262 262 262 262 262 263 264 264 264
303 306 307 308 308 306 306 307 306 310 312 307 304 305 307 309 308 305 302 298 296 297 296 291 287 285 283 282 280 279 278 278 278 277 276 275 274 274 273 273 272 272 271 271 271 270 270 270 269 269 268 268 268 268 268 267 267 267 266 266 266 266 266 266 266 266 266 265 265 265 264 264 264 263 263 262 262 262 262 261 261 261 261 261 261 261 261 261 261 261 261 261 262 262 262 262 263
304 307 308 310 311 309 310 310 308 310 311 303 301 304 306 308 308 305 302 297 292 293 293 290 287 285 283 281 280 279 278 278 277 277 276 275 275 274 273 273 272 272 272 271 271 270 270 269 269 268 268 268 267 267 267 267 266 266 266 266 266 265 266 266 265 265 265 264 264 264 263 263 263 263 262 262 261 261 261 261 261 261 261 261 260 260 260 261 260 260 261 261 261 261 261 261 261
305 308 309 311 312 312 313 311 308 309 307 301 300 303 305 307 305 300 296 292 288 288 289 290 288 285 283 281 280 279 278 277 278 277 276 276 275 274 274 273 273 272 272 271 271 270 270 269 269 268 268 267 267 267 266 266 266 266 266 265 265 265 265 265 265 264 264 264 263 263 263 263 262 262 262 261 261 261 261 261 260 260 260 260 260 260 261 261 260 260 260 260 260 260 261 260 260
306 307 308 310 310 311 312 310 308 309 306 301 300 303 307 308 301 291 288 287 285 286 287 288 287 284 282 281 279 279 277 277 278 277 276 276 275 275 274 273 273 272 272 271 271 270 270 269 269 268 268 267 267 266 266 266 266 265 265 265 265 265 265 264 264 264 263 263 262 262 262 262 262 261 261 261 261 261 261 261 261 260 260 261 260 261 261 261 261 261 261 260 260 260 260 260 260
306 304 307 309 308 307 308 305 304 304 305 305 303 304 306 302 293 286 286 286 285 285 286 285 285 283 281 280 279 278 278 277 278 277 277 276 275 275 274 273 273 272 272 271 271 270 270 269 269 268 268 267 267 266 266 266 265 265 265 265 265 265 265 264 264 263 263 262 262 262 261 261 261 261 260 260 260 260 260 261 261 261 261 261 261 261 261 261 261 262 261 260 260 260 260 259 259
305 304 307 305 302 304 307 305 301 301 305 308 305 305 305 301 294 287 286 287 285 284 285 284 283 282 281 280 279 279 278 277 277 277 277 276 275 274 274 273 273 272 272 271 270 270 270 269 269 268 268 267 267 266 266 265 265 264 264 265 265 265 264 263 263 262 262 262 261 261 261 261 260 260 260 260 260 260 260 261 261 261 261 261 262 262 262 262 262 261 260 260 260 259 259 259 259
305 306 306 302 301 303 306 307 306 306 309 309 305 305 306 306 302 292 287 289 287 284 284 283 282 282 281 281 280 279 278 277 277 277 276 276 275 274 274 273 273 272 271 271 270 270 269 269 269 268 268 267 267 266 266 265 264 264 265 265 265 264 263 262 262 262 262 261 261 261 261 260 260 260 260 260 260 260 260 260 260 261 261 261 262 261 261 261 261 261 260 260 259 259 259 259 259
303 304 302 303 306 307 306 307 310 310 310 309 305 303 303 305 305 299 296 295 290 285 284 283 282 282 281 281 280 279 278 277 277 277 276 276 275 274 274 273 273 272 271 271 270 270 269 269 268 268 267 267 266 266 265 264 265 265 265 265 263 262 262 262 262 261 261 261 261 260 260 260 260 259 259 259 260 260 260 261 261 261 261 261 261 261 261 261 261 261 260 260 259 259 259 259 259
300 301 301 302 304 306 306 305 306 309 309 309 308 305 304 305 304 303 302 298 292 287 284 283 283 282 282 281 280 278 278 277 277 277 276 276 275 274 274 273 273 272 271 271 270 269 269 268 268 268 267 266 266 265 265 265 265 265 264 263 262 262 262 262 261 261 261 261 260 260 260 260 260 260 260 260 260 261 261 261 261 261 261 261 261 261 261 261 261 261 260 260 260 259 259 259 258
302 303 304 303 302 302 304 303 303 305 307 308 307 308 308 303 298 300 300 296 292 288 286 285 283 282 282 281 279 279 278 277 277 277 276 275 275 274 274 273 272 272 271 270 270 269 269 268 267 267 266 266 265 265 265 265 265 264 263 262 262 262 261 261 261 261 261 261 260 260 260 260 260 260 260 261 261 261 262 262 262 262 261 261 261 261 261 261 261 261 260 260 259 259 259 258 258
304 306 306 305 304 303 305 306 303 302 305 307 305 307 309 299 292 293 293 291 291 289 287 286 283 283 282 281 280 279 278 277 277 277 276 275 275 274 274 273 272 272 271 270 270 269 268 267 267 266 266 265 265 265 265 265 264 263 262 262 261 261 261 261 261 261 261 261 260 260 260 260 260 260 260 261 262 262 262 262 262 262 261 261 261 261 261 260 260 260 260 259 259 258 258 258 258
Wind_Speed
10 10 11 12 8 4 2 1 4 3 3 7 6 4 2 2 1 4 6 3 3 4 4 4 5 4 6 10 14 15 16 10 5 0 3 4 8 19 25 23 27 31 28 25 23 22 21 21 24 29 30 30 30 30 29 27 25 24 23 23 22 22 22 22 22 22 22 22 21 22 21 21 22 22 22 22 22 21 22 23 22 22 20 20 20 20 20 19 20 19 19 19 19 19 20 20 19
10 9 9 7 4 2 2 1 5 6 6 8 6 5 2 3 3 5 5 4 5 5 5 8 11 11 13 15 14 13 15 12 12 6 7 9 6 21 27 23 28 34 32 32 33 32 30 28 30 30 29 30 30 29 29 28 27 25 24 24 23 23 23 23 23 23 23 22 22 23 23 23 22 23 23 24 24 22 23 23 22 23 22 21 21 21 21 20 20 20 19 19 19 19 20 20 19
9 9 7 3 1 1 2 2 6 7 8 9 6 3 2 4 4 5 4 4 5 4 4 8 10 8 8 12 9 8 10 11 17 8 5 17 11 17 24 22 27 33 34 35 36 36 35 33 33 31 30 30 31 31 31 30 28 27 26 26 24 24 24 24 23 22 23 23 24 25 26 26 25 23 23 24 25 23 24 24 24 24 23 22 22 22 22 20 20 21 21 20 20 20 19 19 19
6 8 7 3 2 1 3 4 5 6 9 9 5 3 1 3 5 6 4 3 2 2 4 6 7 9 8 10 9 6 8 7 16 13 4 17 15 15 19 19 25 33 37 38 38 38 36 34 35 33 32 31 32 33 32 31 29 28 28 28 28 27 27 25 24 24 24 23 23 24 25 27 28 26 25 24 25 25 25 25 25 25 25 24 23 23 23 22 22 23 23 21 21 21 20 19 20
3 6 6 3 3 2 2 2 2 6 7 6 4 3 2 4 6 5 5 4 3 3 5 6 6 8 12 11 8 3 8 8 10 17 8 12 16 14 17 19 24 34 39 41 41 39 37 35 35 33 32 32 31 31 32 31 30 29 28 29 30 30 29 27 27 26 26 25 23 24 25 27 29 29 28 26 25 25 26 27 26 26 26 25 23 23 23 22 23 24 24 23 23 24 23 22 22
2 2 6 3 2 0 2 3 4 6 1 1 3 5 5 5 6 5 7 7 8 7 6 7 9 11 10 9 9 9 10 7 6 15 12 12 17 16 17 20 25 36 39 40 41 39 38 37 35 33 33 33 31 31 32 31 30 30 28 28 29 28 28 27 27 26 26 25 25 26 26 27 29 28 29 29 27 25 25 27 28 28 28 26 23 22 23 22 23 24 24 24 24 25 25 24 23
3 1 3 4 4 1 4 5 5 6 2 4 1 7 8 6 5 4 6 6 10 9 8 9 11 14 8 5 9 13 16 13 8 12 13 12 17 20 19 20 28 36 36 37 38 38 38 37 36 34 35 34 33 33 33 31 31 30 29 29 29 28 28 27 27 25 24 25 25 26 25 26 26 25 25 25 27 26 24 26 27 27 28 27 25 24 24 24 23 24 24 24 23 24 24 24 23
1 1 1 1 3 1 3 4 3 2 2 3 2 5 8 7 5 3 3 1 8 8 9 11 11 12 9 7 7 11 18 17 12 12 14 16 19 20 20 23 33 36 35 36 35 35 35 35 35 35 36 35 33 34 34 33 32 31 31 30 30 30 29 28 28 27 25 26 26 25 24 23 23 22 21 20 23 24 24 23 23 23 24 25 25 26 25 24 23 23 24 24 23 22 22 22 22
2 2 1 2 3 2 2 4 2 1 1 1 1 4 6 5 5 5 4 4 6 9 9 10 7 8 10 14 10 7 15 18 15 15 16 18 20 20 20 27 37 37 37 38 37 37 36 35 35 35 35 34 34 34 34 33 32 31 30 30 30 30 29 28 27 27 26 25 25 23 22 22 22 22 22 21 22 22 21 21 21 21 21 22 23 24 24 22 23 23 24 24 24 23 22 22 22
2 2 1 2 3 4 3 4 2 3 3 3 5 4 4 4 6 9 9 6 4 8 12 10 11 12 12 12 8 5 11 14 15 17 19 20 21 22 23 31 37 36 38 38 39 38 37 36 36 36 35 34 34 34 34 32 31 30 29 29 29 29 27 25 24 24 23 23 22 22 22 21 22 21 22 22 21 21 22 21 21 21 20 21 21 22 23 22 23 23 23 23 24 24 23 22 22
2 1 1 2 4 4 4 5 4 4 4 5 6 4 3 4 7 10 10 10 5 6 11 10 13 15 14 9 4 7 10 12 15 18 20 21 24 24 27 35 36 37 38 37 38 37 36 35 35 34 33 32 32 32 32 31 31 30 29 28 28 26 25 24 23 22 22 22 21 22 22 22 22 22 23 23 23 24 25 25 24 24 23 23 22 22 22 23 23 23 23 22 23 24 23 23 22
2 2 3 4 4 3 3 5 5 5 5 5 5 3 2 1 6 10 10 11 7 7 12 10 7 11 11 8 4 8 11 14 15 16 17 21 25 27 32 37 37 37 37 36 36 36 36 35 34 33 31 30 30 30 30 30 30 29 27 26 25 24 23 23 22 22 22 22 22 23 24 24 25 26 27 28 28 29 29 29 29 28 28 26 25 25 24 25 25 25 24 24 24 24 24 24 23
1 2 4 4 1 1 3 4 5 6 6 4 4 3 3 3 4 8 10 11 9 8 11 14 4 9 9 7 6 7 10 14 14 15 16 18 23 29 34 36 37 37 35 36 36 36 35 34 34 33 31 29 28 28 28 27 27 26 24 24 23 22 21 20 20 21 22 22 24 26 28 28 29 30 31 32 32 32 32 32 32 32 31 30 29 28 28 28 28 28 27 27 26 26 25 25 24
0 1 2 3 2 2 3 4 5 6 4 4 5 5 5 5 4 6 8 10 13 7 6 14 7 8 8 6 5 5 8 11 10 13 14 16 22 29 34 35 35 36 35 35 35 36 35 35 33 32 31 29 27 27 26 25 24 23 23 22 22 21 20 21 23 25 26 27 29 31 32 32 32 33 33 33 33 33 33 33 33 33 32 32 32 31 31 31 31 31 31 30 29 29 28 27 27
0 1 0 2 3 3 2 2 5 5 4 4 5 6 8 8 6 8 11 7 9 9 3 13 12 3 5 5 5 5 9 8 5 8 10 15 22 29 34 34 35 34 34 34 34 35 35 35 34 33 33 32 30 29 29 28 27 27 27 27 27 27 28 29 31 31 32 33 34 34 34 34 34 34 34 35 34 34 34 34 34 34 33 33 33 33 33 33 33 33 33 33 32 31 30 30 30
1 1 2 2 2 3 2 2 4 4 4 5 7 8 10 11 10 9 12 7 9 13 10 12 13 8 8 8 8 9 10 7 6 7 9 15 20 29 34 35 36 34 34 33 34 34 34 35 36 36 36 36 36 35 35 35 35 35 35 35 35 35 34 34 35 35 35 35 36 36 36 36 35 35 35 36 35 35 35 35 34 34 34 34 34 34 34 34 34 34 34 34 33 34 33 33 33
2 2 2 2 2 3 3 4 3 4 5 6 8 8 10 10 10 11 14 17 13 15 17 13 15 17 14 11 12 14 13 11 12 13 14 16 19 29 34 35 36 35 35 33 33 32 33 35 36 38 38 39 39 38 39 39 39 39 39 39 38 37 36 36 36 36 37 36 37 37 37 37 37 36 36 36 36 35 35 35 34 34 34 34 35 35 34 35 35 35 35 34 35 35 35 35 35
2 1 1 2 1 1 3 5 3 4 6 5 6 8 12 11 7 8 10 17 15 15 16 15 19 20 16 15 17 19 18 17 19 18 17 17 20 26 30 31 33 31 31 32 32 31 32 34 35 36 37 38 39 40 40 40 40 39 39 39 39 39 38 38 37 38 38 38 38 38 38 38 38 37 37 37 36 36 35 35 35 34 35 34 35 35 35 35 35 35 34 35 35 35 35 35 35
2 1 1 2 2 3 4 6 6 6 6 7 7 8 11 7 3 4 6 10 12 14 13 11 16 16 15 17 18 20 21 23 22 18 17 19 21 23 22 25 28 27 27 28 29 30 31 32 33 35 36 37 39 40 41 40 40 40 40 40 40 40 40 40 39 39 39 39 39 38 39 38 38 37 37 36 36 36 35 35 35 34 35 35 35 35 34 34 34 34 34 34 34 35 35 35 34
1 1 2 3 4 6 6 7 8 7 7 9 8 9 13 10 5 4 9 12 13 12 9 8 11 11 11 14 16 17 20 22 20 17 18 20 20 20 19 21 24 24 23 24 25 28 29 31 33 35 36 37 39 40 40 41 41 41 41 40 40 40 40 41 40 39 39 39 39 39 38 38 38 37 37 37 36 36 35 36 35 35 35 35 35 35 35 35 34 34 34 34 34 35 34 34 33
1 2 3 6 7 7 7 8 9 8 7 8 8 10 13 11 10 6 8 9 10 8 8 8 9 9 9 11 14 15 17 19 18 17 18 19 18 17 18 19 21 21 21 23 25 27 28 30 33 34 36 37 38 39 40 41 41 41 41 41 41 40 40 40 40 40 39 39 39 39 38 38 38 37 37 37 37 36 36 36 36 36 37 37 37 37 36 36 36 36 36 35 35 35 35 34 33
2 3 5 6 5 7 8 6 8 8 8 7 7 10 9 6 12 12 7 7 6 6 8 10 9 10 10 11 13 15 17 17 16 17 17 18 17 16 17 18 20 19 21 24 25 27 28 29 32 33 35 37 38 39 40 40 40 41 41 41 40 40 40 40 40 40 39 38 38 38 38 38 38 37 37 37 37 36 37 37 37 37 38 38 38 38 38 38 38 38 37 36 35 35 34 34 33
2 4 4 4 4 7 9 6 7 8 8 7 6 9 9 10 11 13 14 12 7 9 10 11 12 11 11 12 13 15 16 16 15 15 15 16 16 15 16 17 17 16 18 21 23 26 27 27 29 32 35 37 39 39 40 40 40 41 40 40 40 40 40 40 40 39 39 38 38 38 38 38 38 38 37 37 37 37 37 37 38 38 38 39 39 39 38 38 38 38 38 37 36 35 34 34 32
3 5 5 4 6 8 8 8 10 11 10 7 8 10 8 9 9 9 13 11 8 12 12 12 13 12 13 14 15 15 15 14 14 14 14 14 14 14 15 16 16 15 17 18 20 23 25 25 27 30 34 36 37 38 39 40 40 40 40 39 40 39 39 40 39 39 39 38 38 38 38 38 38 37 37 37 37 36 37 37 38 38 39 39 39 38 38 38 37 37 37 36 35 33 30 32 31
5 6 7 6 7 8 9 11 13 14 10 7 11 12 9 10 11 10 10 9 8 11 12 12 12 12 14 14 14 14 14 14 13 13 13 12 13 14 15 15 16 17 18 18 19 22 24 25 26 29 32 33 35 37 38 39 39 39 39 39 39 38 39 39 38 38 38 38 38 38 37 37 37 37 37 37 37 37 37 37 37 38 37 38 38 38 38 37 36 36 36 35 33 29 25 27 27
4 5 8 7 9 8 9 11 13 15 8 7 13 12 10 10 9 9 7 7 9 10 11 11 11 12 12 13 13 13 13 13 12 12 11 11 12 14 15 15 16 17 17 17 19 21 23 24 25 28 30 32 34 37 38 39 39 38 39 38 38 38 38 38 38 38 38 38 38 37 37 37 37 37 37 37 37 37 37 37 37 36 36 37 36 36 37 36 35 34 35 35 33 29 24 25 26
3 6 9 9 10 7 8 11 11 12 7 7 12 10 7 4 1 4 6 6 8 10 10 9 10 10 10 11 11 12 13 12 12 11 11 11 12 13 13 14 15 15 15 16 17 18 21 23 25 28 30 32 34 37 37 38 38 38 38 37 37 37 37 37 37 37 37 37 37 36 36 36 36 36 37 37 37 36 36 35 34 35 35 35 36 35 35 36 35 34 35 35 33 31 27 27 30
2 5 10 10 9 7 8 10 10 9 5 8 15 12 5 4 2 5 8 7 8 9 9 9 9 9 9 10 10 11 12 11 11 11 12 11 11 11 12 12 12 12 15 15 15 16 19 21 24 27 29 32 34 36 37 37 37 37 37 36 36 36 36 37 37 37 37 36 36 35 36 35 35 36 36 36 35 35 35 34 32 33 35 35 35 35 35 36 35 35 35 33 31 28 26 27 29
1 3 5 11 10 7 7 7 9 6 5 11 13 9 4 4 5 8 9 8 8 9 9 8 8 8 7 8 9 10 11 11 11 11 11 9 9 10 11 11 10 10 12 14 16 17 19 22 22 24 26 30 33 34 35 36 36 36 36 36 36 36 36 36 36 36 36 35 35 35 35 35 35 35 35 35 34 34 34 34 32 31 33 34 34 34 35 35 36 35 34 33 30 25 22 23 25
3 2 1 7 7 6 5 5 9 6 6 12 6 3 3 5 7 9 9 9 9 9 8 7 7 6 6 6 7 9 10 10 11 11 9 8 9 10 10 11 10 9 9 12 15 16 19 21 22 22 24 28 31 33 34 35 35 34 35 35 36 36 36 36 36 35 35 34 34 34 34 34 34 34 34 34 34 34 34 34 32 30 31 32 33 35 33 32 33 33 32 30 27 23 20 20 22
2 1 1 4 4 5 5 3 9 7 5 9 5 5 3 6 9 9 9 9 9 8 7 6 6 5 5 6 6 8 9 10 11 10 10 9 8 9 10 11 11 11 10 11 14 15 17 20 21 21 23 27 30 32 33 33 34 33 34 35 35 35 35 35 34 34 34 34 33 33 34 33 33 33 33 33 33 33 33 32 31 29 29 28 29 31 29 27 28 26 25 24 23 20 18 19 20
1 2 4 3 4 4 7 3 4 4 5 7 7 5 2 6 10 10 9 9 8 8 7 6 6 6 5 6 6 7 8 9 10 10 9 9 9 9 10 11 11 11 11 12 13 15 17 20 21 22 23 25 28 30 31 32 32 33 33 34 34 34 34 34 34 33 33 33 33 33 33 32 32 32 32 33 33 32 31 30 30 29 26 22 21 23 22 22 23 21 20 21 21 19 18 19 21
2 4 4 4 4 4 4 3 1 1 6 8 7 4 2 5 10 10 9 9 8 7 7 7 6 6 5 5 5 6 7 8 9 9 9 8 9 9 10 10 11 12 13 13 14 16 18 20 22 23 23 23 25 28 29 30 31 31 32 32 33 33 33 33 32 32 32 32 32 32 32 32 32 32 32 33 32 31 30 28 28 27 22 18 17 17 18 19 21 20 20 21 21 20 19 21 25
3 3 4 3 4 4 3 3 2 1 5 6 6 4 2 6 9 10 9 9 9 7 8 8 6 6 5 5 5 5 6 6 7 8 8 8 9 9 10 10 11 12 14 16 17 17 18 20 22 23 24 24 25 26 26 27 28 28 29 30 31 32 32 32 30 31 32 31 31 31 31 31 31 32 32 32 30 28 27 26 26 26 20 17 17 17 18 19 22 22 21 23 24 24 21 22 28
2 4 4 3 3 6 5 2 2 1 4 5 6 5 4 7 9 9 9 10 10 8 8 8 7 7 6 5 5 5 5 6 6 6 7 7 8 9 9 10 11 12 14 17 19 18 19 20 21 23 23 23 24 24 23 22 23 24 24 25 28 29 28 28 29 30 30 30 30 30 30 31 30 31 31 30 29 26 25 24 25 27 23 20 19 19 20 21 24 24 24 24 24 26 21 21 28
1 2 3 4 4 6 4 1 2 0 4 6 6 6 6 9 10 10 10 10 9 9 8 7 7 7 6 6 5 5 6 6 6 6 7 7 8 8 9 10 11 13 14 16 19 19 20 20 21 22 22 22 22 22 21 18 17 18 18 19 21 22 22 23 25 26 27 28 29 29 29 29 29 30 29 29 30 27 25 25 26 27 25 22 21 21 23 24 25 26 25 23 23 25 21 21 27
2 3 4 6 6 5 1 3 2 2 3 5 3 3 5 8 10 10 10 9 10 10 10 9 8 8 7 7 7 7 7 7 7 7 7 7 7 8 8 9 11 13 14 16 18 20 20 20 21 22 22 23 22 20 19 16 14 13 14 16 16 17 17 17 19 22 24 26 27 27 28 28 28 29 29 29 30 29 27 26 26 27 27 25 24 23 24 25 25 25 23 21 21 22 21 21 26
4 5 6 6 7 5 1 3 2 1 3 3 3 4 6 8 8 9 9 10 11 11 11 11 10 9 7 8 9 8 7 8 8 7 7 7 7 7 8 9 10 12 13 15 16 18 20 21 21 21 22 22 21 19 17 16 14 12 12 12 13 15 16 16 17 18 21 23 25 26 26 27 27 28 29 29 30 30 29 28 27 27 28 28 26 24 24 24 24 23 21 20 19 19 18 20 24
5 5 6 6 4 2 2 4 3 1 3 2 5 6 6 7 8 8 10 10 9 10 10 10 11 10 9 9 9 9 9 9 9 8 8 7 7 7 7 8 9 10 11 12 14 15 17 18 19 20 20 19 19 19 17 16 17 17 16 14 13 14 16 18 19 18 18 20 22 24 25 26 27 28 28 28 29 29 29 29 27 27 28 27 26 23 23 23 23 22 20 19 19 18 16 17 20
6 5 6 5 2 2 3 3 4 2 2 0 4 5 5 6 7 7 11 10 7 8 9 9 9 10 10 10 9 10 11 10 10 10 9 8 7 7 7 8 8 8 9 10 11 12 13 15 16 18 19 19 19 19 18 17 17 17 17 16 15 15 15 14 15 15 15 16 18 22 24 25 26 27 28 28 28 28 28 28 27 27 26 24 22 20 20 21 21 20 19 18 18 18 17 17 17
7 7 8 6 4 5 3 2 5 2 1 3 4 5 6 9 10 9 9 9 8 8 9 9 9 9 9 9 10 10 11 10 10 11 11 10 8 7 7 7 7 8 8 9 9 10 11 13 15 16 18 19 19 19 18 16 14 12 12 12 11 12 13 12 12 13 13 14 15 19 22 25 26 26 27 27 27 27 27 28 27 26 24 21 20 18 17 18 18 18 18 17 16 16 17 17 15
5 8 10 11 9 6 3 5 4 3 4 5 4 6 5 7 11 10 9 9 10 10 11 12 11 10 10 10 11 10 10 11 11 12 12 11 10 9 8 8 7 8 8 8 9 9 10 12 13 14 16 18 19 19 18 16 15 13 12 11 10 10 11 12 12 12 12 13 14 17 21 24 26 26 26 27 26 27 27 26 26 23 20 18 18 16 15 17 17 17 17 16 15 15 15 15 15
4 3 5 8 9 7 6 7 5 5 3 3 3 7 5 3 7 8 9 10 12 12 13 14 13 12 12 11 11 11 11 11 11 12 12 11 11 10 9 8 8 8 7 7 8 9 10 11 12 13 14 16 18 18 18 16 15 15 14 13 12 11 10 10 11 11 12 13 15 18 20 23 25 25 26 26 26 26 26 24 23 21 18 16 16 15 15 16 16 15 15 15 15 14 14 14 15
2 2 2 5 6 7 8 8 6 5 1 2 4 5 7 6 4 4 8 10 12 15 15 15 15 14 14 12 12 12 11 11 12 13 13 13 12 11 10 9 8 8 7 7 8 8 10 11 12 13 14 16 17 18 18 17 16 15 13 12 12 11 10 9 9 11 13 14 16 18 20 21 23 24 25 26 25 25 24 22 20 19 16 14 15 14 14 16 15 15 15 14 14 14 14 14 14
1 2 1 3 4 5 6 6 6 3 1 4 7 5 6 8 3 3 5 8 12 17 18 18 17 16 15 14 13 13 12 13 14 14 14 13 12 11 10 10 9 8 7 7 7 8 9 10 11 13 14 14 16 17 17 18 17 15 13 11 11 10 9 8 8 9 13 15 17 19 19 20 22 22 24 24 24 23 21 19 19 17 14 13 14 13 14 16 15 15 16 14 15 15 13 13 14
2 4 3 3 3 2 3 5 4 2 4 9 9 10 6 7 4 5 4 7 12 13 13 16 17 16 15 14 14 14 12 13 14 14 14 13 12 11 11 10 9 8 7 7 7 7 8 9 10 11 12 12 14 15 15 16 16 14 13 12 10 9 8 7 8 9 12 15 16 17 17 18 20 20 20 21 21 22 20 18 18 18 14 13 14 14 15 17 16 16 16 15 15 15 13 13 13
3 5 3 3 3 2 2 2 1 3 7 7 7 13 10 7 4 8 5 4 6 6 6 12 15 16 16 14 14 14 12 12 14 15 14 13 13 12 11 11 10 8 8 7 7 7 7 8 8 10 10 10 12 13 14 14 14 12 11 10 10 9 9 8 9 10 13 15 14 15 15 16 17 17 17 19 19 21 20 18 19 19 15 14 15 15 16 18 17 17 17 16 17 15 13 14 13
2 3 2 2 2 2 2 3 3 6 6 0 0 7 11 9 4 5 5 2 2 1 5 12 17 17 16 14 14 14 12 12 14 15 15 15 14 13 12 11 10 9 8 7 7 7 7 7 7 8 8 9 10 12 13 12 11 10 9 9 10 11 11 11 12 12 13 14 13 13 13 13 13 13 14 16 17 20 20 18 19 19 16 16 17 18 19 20 19 18 18 19 19 16 14 15 13
3 3 3 4 4 3 4 3 3 6 4 2 2 1 6 10 7 2 4 4 4 2 1 9 16 17 16 15 14 13 12 12 14 15 15 16 15 14 14 13 11 10 9 8 8 7 7 6 7 7 7 7 8 9 10 10 10 10 10 10 11 12 13 13 13 13 11 11 11 10 11 11 11 11 12 14 16 19 19 18 19 19 18 18 19 20 21 21 20 19 18 19 18 15 15 17 15
5 5 4 5 5 4 6 4 2 4 1 2 1 1 4 8 5 1 2 3 3 2 1 5 14 17 16 16 14 13 12 12 13 15 16 15 15 15 14 13 12 11 10 9 8 7 7 6 6 6 6 6 6 6 7 9 9 10 10 11 10 11 13 13 12 11 9 9 9 9 8 9 10 10 11 13 17 19 19 19 19 19 19 20 21 21 22 22 21 20 18 17 17 16 16 19 19
5 2 2 6 5 4 5 3 3 4 2 1 3 2 4 4 0 2 2 3 3 1 1 5 10 13 14 14 14 13 13 12 13 15 16 16 16 15 14 13 12 11 11 10 8 8 7 6 6 5 5 4 4 5 6 8 8 9 9 10 11 11 13 12 9 9 8 7 9 8 7 9 10 10 12 15 18 19 20 20 20 21 21 22 22 23 23 22 22 21 19 17 19 19 17 19 19
3 2 2 5 3 2 2 2 2 3 5 4 4 4 5 1 2 2 1 1 2 2 4 8 10 13 13 13 13 13 12 12 13 15 16 16 16 15 15 14 12 12 11 10 9 8 7 6 6 5 4 4 4 4 5 5 6 7 8 9 11 12 13 10 6 8 8 7 9 8 8 10 11 11 13 17 19 19 20 22 22 22 23 23 23 23 23 23 23 22 20 19 21 20 19 20 18
3 3 3 2 1 0 2 2 0 0 7 6 4 6 5 1 2 3 3 2 3 4 6 9 11 14 14 12 12 13 12 12 12 14 16 17 17 16 15 14 13 12 11 10 9 9 8 7 7 6 4 4 3 3 3 3 5 6 7 10 12 12 12 9 6 8 8 7 9 8 9 12 13 14 16 19 20 20 21 22 22 22 23 23 24 24 23 23 23 22 21 20 21 20 20 22 19
2 3 2 2 1 1 1 3 2 4 9 6 3 7 7 4 3 2 3 6 6 7 8 10 11 14 14 12 13 13 13 13 13 15 17 17 17 16 15 14 13 13 12 11 10 9 8 7 7 6 5 4 3 2 2 3 5 7 9 11 12 10 9 8 7 8 8 8 10 10 11 14 15 15 17 18 19 20 21 21 22 22 23 23 23 23 23 23 23 22 21 21 21 20 21 23 21
1 1 1 1 2 2 3 2 4 6 8 7 4 5 7 8 5 3 6 10 10 10 10 12 13 15 13 12 14 14 14 13 13 15 16 17 17 16 15 15 14 14 13 12 11 10 9 8 7 6 5 4 3 1 1 4 7 9 10 10 9 7 7 7 7 8 9 9 10 12 13 15 15 16 17 18 19 20 21 21 22 23 23 23 23 23 23 23 23 22 22 21 21 21 22 24 23
1 1 2 0 2 3 2 1 2 5 7 8 5 4 5 6 5 5 7 7 11 13 12 13 15 15 14 13 14 14 14 13 12 13 16 17 17 17 16 15 15 15 13 12 11 10 9 8 7 6 5 3 1 0 3 6 8 9 9 8 7 7 7 7 8 9 9 10 12 13 15 15 16 17 17 19 20 21 21 22 22 23 23 23 23 23 23 23 23 23 22 22 22 22 23 24 23
3 4 5 4 2 0 1 1 1 3 6 7 6 8 6 1 2 2 2 2 8 14 12 12 13 15 14 13 14 14 13 13 12 13 16 17 17 17 16 15 15 14 13 12 11 10 9 8 7 6 4 3 2 2 5 7 8 8 7 7 7 7 8 8 9 10 11 12 13 14 15 16 17 18 19 20 20 21 21 22 23 23 22 23 23 23 23 23 23 23 23 23 23 23 24 24 24
5 5 7 7 6 3 1 4 2 1 5 4 3 9 8 1 2 1 3 2 4 9 10 10 12 15 14 13 14 14 13 13 13 15 17 17 17 17 17 16 15 14 13 12 11 10 10 8 7 6 4 3 3 4 6 8 8 7 7 7 8 9 9 10 11 12 12 14 15 15 16 17 18 19 19 20 20 21 21 22 22 22 22 22 22 23 23 23 23 23 23 23 23 23 24 25 25
Wind_Direction
324 323 330 339 348 318 242 282 215 185 239 222 216 201 160 80 69 156 141 129 130 57 32 64 66 54 89 104 106 81 43 38 11 356 105 40 351 23 45 43 64 78 69 73 77 85 86 83 87 90 91 91 93 90 88 86 84 83 81 80 77 76 75 74 71 69 69 67 67 66 65 63 62 62 61 58 56 56 53 51 51 51 47 48 47 45 43 41 41 38 38 35 33 29 28 30 27
332 330 334 339 360 293 190 314 237 195 214 219 214 204 151 124 176 156 119 98 99 85 85 88 88 82 98 105 103 86 49 37 12 39 64 3 352 35 43 38 60 78 70 70 73 79 80 77 80 82 85 87 90 89 86 84 84 82 80 79 77 77 75 74 72 71 71 69 70 68 67 63 62 63 62 62 59 58 59 56 56 56 54 54 52 50 47 46 46 41 40 37 36 32 27 26 24
344 343 340 322 87 353 153 209 239 206 210 215 203 164 134 171 157 106 77 81 99 110 112 100 91 56 114 110 62 71 57 40 18 18 44 15 15 14 28 41 55 74 73 72 70 72 74 74 78 80 84 83 85 85 83 83 82 80 79 79 77 79 76 74 72 72 74 73 74 71 71 68 64 65 62 63 61 61 62 59 58 56 55 56 53 51 48 49 48 43 42 40 39 37 31 28 25
356 349 349 290 168 144 181 200 240 222 217 214 197 127 131 153 100 81 62 54 107 155 139 114 88 22 77 81 8 60 43 15 13 9 32 16 13 355 20 46 50 68 74 73 70 71 72 73 76 77 80 79 81 82 81 81 81 81 81 81 80 81 78 77 75 71 71 71 73 70 71 70 67 66 62 60 59 60 59 56 55 52 52 52 49 46 43 45 43 38 40 40 39 37 33 32 29
342 350 10 303 194 152 184 191 232 226 223 212 195 118 96 106 85 82 72 63 100 125 139 119 98 57 70 53 356 58 352 321 5 15 27 10 16 13 35 51 52 67 70 72 72 70 71 71 73 72 74 74 76 78 80 80 80 80 81 81 77 77 77 77 76 72 69 69 70 67 67 67 66 64 62 59 55 55 55 52 52 50 48 48 46 43 39 40 38 35 35 35 35 34 31 31 30
270 359 42 48 114 41 195 182 204 209 233 286 201 136 117 108 90 95 92 80 79 74 109 108 109 103 79 66 54 54 3 346 5 9 11 8 23 35 51 53 62 74 70 73 73 70 73 72 71 71 72 71 72 73 75 77 75 76 76 75 72 72 75 75 75 73 72 71 69 67 65 64 63 63 62 59 55 53 51 49 47 46 45 45 45 40 38 37 34 32 31 30 29 29 30 29 28
238 231 63 94 113 268 210 190 204 196 69 4 263 139 136 126 102 100 104 98 90 74 82 90 106 106 80 103 82 42 27 30 25 9 14 21 33 47 56 55 71 81 75 76 74 73 78 76 72 71 71 70 71 72 73 75 73 72 72 71 71 71 73 74 74 73 72 70 67 65 64 63 61 59 59 58 55 52 48 44 42 40 40 41 40 37 35 35 32 28 27 26 23 23 24 23 22
234 289 300 174 140 204 219 193 193 189 59 4 322 128 133 130 125 81 38 69 121 114 108 109 102 90 64 82 85 36 32 36 39 28 35 45 43 49 49 59 76 80 77 79 79 78 81 80 79 76 73 69 69 71 71 72 73 72 72 72 71 71 72 73 72 71 70 68 66 63 62 61 59 55 55 54 52 49 44 40 37 34 32 32 33 34 32 30 30 26 24 22 21 19 17 14 13
56 359 219 202 153 158 204 185 159 135 92 82 99 105 108 117 140 119 62 33 115 120 116 123 110 99 87 80 78 39 26 28 36 36 43 47 47 51 45 62 74 74 76 79 81 83 84 84 86 86 82 77 75 75 76 77 78 78 79 78 77 77 75 75 73 70 69 66 65 63 61 60 59 57 56 54 51 49 46 42 39 35 31 27 27 27 26 26 27 24 19 15 15 16 13 9 6
80 358 208 182 166 173 185 183 169 151 124 108 119 108 109 124 146 145 124 85 75 94 89 85 91 108 102 79 76 43 15 16 27 32 38 44 53 57 54 66 73 72 75 78 81 85 86 87 88 89 88 87 85 83 84 85 85 85 85 84 82 81 78 77 74 71 70 67 67 66 66 63 61 60 57 53 50 50 49 45 43 41 37 32 26 22 21 20 22 20 14 9 8 10 9 8 4
157 22 259 197 180 181 183 176 164 142 117 119 120 92 104 130 137 144 128 105 71 70 67 59 88 102 94 79 77 53 23 22 29 30 35 46 57 58 62 71 74 75 76 78 83 86 87 89 89 88 88 88 88 87 87 87 87 86 85 85 83 81 78 76 75 73 72 70 70 71 69 65 62 60 58 54 51 51 50 48 46 44 41 37 32 27 23 20 20 19 14 9 6 7 7 8 5
192 146 226 210 185 176 174 165 151 141 137 137 125 75 45 114 131 130 122 108 89 70 27 8 113 105 86 92 83 65 39 33 33 32 34 47 58 60 71 76 76 77 77 79 83 87 87 87 88 88 88 88 88 89 89 88 88 87 85 84 82 80 78 77 76 75 74 72 71 72 70 67 65 63 61 59 57 56 55 55 52 49 46 43 40 37 33 29 28 25 22 18 14 13 12 11 8
207 164 217 198 184 153 153 158 149 155 148 119 110 92 34 17 95 117 115 91 59 72 20 353 120 101 80 108 90 81 49 37 36 37 34 42 56 63 75 80 77 76 76 79 81 84 86 86 87 87 88 87 88 89 89 88 87 88 87 84 83 81 79 78 78 76 75 74 73 73 72 71 69 66 64 62 60 58 57 56 54 51 49 46 44 42 39 35 33 30 28 25 22 20 18 16 13
213 182 241 176 179 176 158 163 162 168 141 88 102 107 73 24 21 80 80 76 44 40 39 11 37 98 97 127 106 85 40 30 36 40 33 38 55 64 74 80 78 74 73 75 77 80 83 85 86 86 87 87 89 89 88 88 87 89 89 89 88 87 86 86 85 83 83 82 79 77 74 72 70 67 65 63 60 58 56 54 53 50 48 45 43 41 38 35 32 30 27 25 22 21 19 18 16
25 150 250 154 174 179 166 157 169 174 130 103 108 106 89 32 11 57 30 65 55 11 61 26 13 77 102 118 109 56 25 16 34 44 34 42 57 66 73 77 76 72 68 68 72 76 80 83 85 86 87 87 88 89 89 90 91 92 92 93 92 92 91 90 89 87 85 83 80 77 74 71 68 66 63 61 58 55 53 52 51 48 45 43 41 39 36 33 30 28 25 23 21 19 17 17 16
297 197 172 157 182 196 194 137 169 176 128 115 128 119 94 45 33 64 31 65 80 31 52 30 17 50 56 70 70 46 41 41 58 57 51 53 60 67 71 74 75 70 66 65 69 73 78 83 85 86 87 87 88 90 92 92 91 92 92 91 91 90 89 88 86 84 82 80 77 74 71 68 64 62 60 58 55 53 51 49 48 46 43 41 39 37 34 32 29 26 23 21 18 16 15 15 14
263 229 156 135 160 194 182 162 176 158 121 117 146 138 108 82 65 84 63 68 79 57 63 55 51 60 55 59 57 59 72 74 62 55 55 55 58 65 66 68 71 66 62 64 66 70 77 82 85 87 88 88 89 90 90 89 88 89 89 88 86 85 83 82 81 79 76 74 72 69 66 63 60 57 56 54 52 49 48 46 45 43 41 38 37 35 32 30 27 24 21 19 17 15 14 13 11
270 247 89 85 127 145 150 152 140 110 118 114 132 128 114 111 102 106 75 67 78 74 70 69 67 64 58 56 56 65 76 74 60 48 44 46 51 57 56 59 64 61 57 60 63 68 75 80 84 87 88 88 88 86 85 84 85 85 84 83 82 80 77 75 74 73 71 68 66 65 62 59 56 54 52 51 49 46 44 43 41 40 38 36 35 33 30 28 25 23 20 17 16 14 13 12 10
323 325 53 49 81 84 109 129 115 104 118 104 83 91 95 82 75 99 80 72 74 72 68 71 71 64 53 45 48 57 64 66 55 42 38 43 49 52 50 54 59 58 56 56 58 64 70 76 82 85 86 86 86 84 82 81 81 81 80 79 78 76 74 71 69 68 67 64 62 61 59 57 54 51 49 48 46 44 41 40 38 37 36 34 32 30 28 26 24 21 19 17 15 14 13 12 10
339 336 45 75 109 104 100 106 104 106 116 110 89 77 71 45 20 96 106 85 62 60 57 60 69 63 51 41 43 47 53 58 50 40 40 46 51 55 53 55 59 59 58 57 57 61 67 73 79 83 85 85 85 83 81 80 79 78 77 76 74 73 71 68 65 64 63 62 60 58 57 55 53 49 47 46 43 41 38 37 35 33 32 30 29 27 25 23 21 19 17 16 15 14 13 12 10
22 352 60 104 135 119 101 99 93 90 96 108 109 89 75 48 30 63 129 101 65 59 48 54 68 66 63 52 46 46 50 52 46 40 41 46 50 56 58 61 66 64 64 64 62 63 66 72 77 80 82 84 84 82 81 79 78 76 75 73 71 70 68 66 63 61 60 59 58 56 55 53 51 48 45 43 41 38 36 35 32 31 29 27 27 25 23 21 19 18 16 16 15 14 13 12 10
58 45 79 107 142 128 119 112 92 88 85 84 85 78 79 69 38 35 71 89 79 71 56 63 66 63 67 62 56 53 53 50 45 41 41 44 46 52 60 66 69 65 66 66 65 66 66 70 76 79 80 82 82 82 81 79 77 75 73 71 70 68 66 64 62 59 57 57 56 55 53 51 49 47 44 42 39 37 35 34 32 31 29 27 26 24 22 20 19 18 16 16 15 14 13 12 10
96 93 104 110 118 130 139 120 88 93 89 71 78 90 95 97 68 44 59 73 85 82 74 72 70 70 71 68 64 58 56 53 47 43 41 43 45 49 58 65 62 57 60 62 65 68 69 70 74 79 81 82 82 81 80 79 77 74 72 71 69 67 65 63 61 59 57 55 54 53 51 50 48 45 43 41 39 37 36 34 33 31 29 28 26 23 22 21 19 17 16 15 14 14 12 10 10
99 116 125 124 109 120 130 103 84 81 82 86 99 101 91 95 94 69 70 77 84 84 84 80 75 74 70 66 64 61 61 58 52 48 46 47 47 52 61 64 61 59 59 59 63 67 70 70 73 79 81 82 81 80 79 78 77 75 73 71 69 67 65 63 61 59 57 54 53 52 51 49 47 45 43 41 39 37 36 35 33 32 30 28 26 23 22 20 19 16 15 14 13 12 9 8 8
81 114 125 117 103 106 105 97 96 90 90 96 85 80 75 88 95 82 80 87 88 87 85 82 78 71 65 62 59 59 59 57 54 50 48 48 50 60 64 62 62 62 60 62 67 69 70 71 73 77 79 80 81 80 79 77 76 75 73 71 69 68 65 64 61 59 57 54 52 51 50 49 47 45 43 41 39 38 37 35 33 32 30 28 26 23 22 20 18 16 14 14 12 9 5 3 4
64 110 130 126 111 108 105 101 108 110 120 107 85 89 99 98 89 78 84 95 95 92 82 78 75 69 64 61 57 56 54 50 48 46 47 47 50 56 58 58 58 56 58 66 69 70 73 74 74 77 79 79 80 81 80 78 76 75 73 71 69 67 66 64 61 58 56 54 52 50 49 48 47 45 43 41 39 38 36 35 33 32 29 28 25 23 22 20 18 16 14 13 11 8 4 1 1
70 110 117 126 122 114 115 112 119 122 131 126 107 109 106 88 34 93 114 118 106 97 82 77 74 68 64 63 59 54 51 46 43 45 45 43 45 47 53 56 52 54 63 66 67 71 74 74 75 78 80 79 80 80 80 79 76 74 73 71 69 67 65 63 60 58 55 53 51 49 48 47 46 45 42 41 39 37 36 35 33 31 29 27 25 22 22 20 17 16 15 13 10 8 5 1 2
89 125 111 118 121 113 123 127 143 140 120 128 119 118 101 48 44 117 132 137 121 106 92 87 79 74 69 66 61 55 52 46 43 45 42 40 40 43 51 51 46 56 63 66 69 74 77 75 75 77 79 80 80 79 79 78 76 75 73 71 69 67 64 62 60 58 55 53 51 49 47 46 45 44 43 41 39 37 35 34 32 30 28 26 23 21 21 20 17 16 15 13 9 6 4 0 1
145 188 131 131 131 127 144 148 170 176 146 148 130 129 139 65 93 124 131 138 129 115 104 96 88 84 79 72 68 61 55 51 49 47 45 45 45 49 55 52 48 55 59 68 75 77 80 81 76 75 77 80 80 79 78 78 77 76 73 71 69 67 65 62 60 59 57 54 51 50 48 46 45 44 44 41 39 37 35 34 32 29 27 25 23 20 20 19 16 16 14 12 9 4 1 358 357
170 223 198 155 162 159 168 178 187 189 155 165 170 208 171 103 131 143 140 148 139 123 110 106 99 93 89 81 78 69 60 56 55 52 51 53 54 57 59 56 55 57 61 68 73 74 79 83 80 76 76 79 81 80 79 78 77 75 74 72 69 67 65 63 62 60 57 55 52 50 48 46 44 44 43 41 38 37 36 33 31 29 26 23 22 21 20 16 14 15 12 8 6 1 357 355 353
160 170 265 198 215 165 130 160 190 185 169 186 235 266 194 134 154 156 155 163 153 135 121 118 112 105 101 93 89 81 69 62 61 59 57 57 60 62 60 61 59 61 66 68 72 75 77 82 82 79 79 80 81 81 79 78 76 75 73 72 70 68 66 64 62 59 57 54 52 50 48 45 44 43 42 42 39 38 37 34 32 30 26 22 19 20 20 14 11 10 6 2 358 356 353 352 351
106 226 224 194 243 179 118 94 202 183 172 199 233 253 171 147 163 160 165 174 165 146 130 131 124 117 117 107 101 95 87 77 70 63 59 59 60 63 62 62 61 62 69 70 76 81 81 84 85 83 81 80 79 80 80 78 76 74 73 72 70 68 65 63 61 58 56 54 52 50 48 46 44 43 42 42 41 39 38 35 32 31 26 20 16 15 15 11 8 4 2 1 355 352 352 351 352
171 237 240 191 221 215 138 107 351 114 159 187 232 251 92 140 164 162 171 181 173 154 140 142 134 128 127 121 118 112 106 95 79 65 60 63 61 63 64 63 63 68 76 80 82 84 85 86 87 86 83 82 80 79 79 78 77 74 72 70 69 67 65 62 60 58 56 54 51 50 48 46 43 43 42 42 41 39 38 34 32 31 25 19 16 13 12 10 8 4 1 2 359 353 351 353 353
194 209 240 220 214 231 202 150 90 42 190 195 225 241 89 125 157 166 176 184 181 171 155 151 146 143 135 128 127 122 117 103 86 72 67 68 66 67 68 67 69 73 81 88 89 88 87 88 89 88 87 87 85 81 79 76 75 73 71 69 67 65 64 62 59 57 55 53 51 49 48 46 43 43 42 42 42 39 37 34 31 31 26 19 17 15 13 10 9 7 2 2 4 0 355 355 354
225 214 231 231 213 230 239 199 116 165 227 208 201 212 153 139 162 174 179 186 192 181 163 159 158 151 145 141 132 124 119 103 90 82 78 76 73 73 72 71 72 76 81 88 91 90 89 89 90 90 89 87 85 83 79 74 72 70 68 66 65 63 62 60 58 56 54 53 51 49 47 45 43 43 42 41 41 39 36 33 30 30 27 21 18 16 13 11 9 8 4 1 3 3 360 354 353
254 237 250 253 239 237 229 112 62 167 217 199 205 222 173 163 178 179 179 188 195 181 164 166 165 159 156 151 141 134 124 109 101 95 88 83 80 79 77 74 75 78 82 87 91 90 88 88 88 88 88 87 84 81 77 72 68 66 65 64 63 61 59 58 57 56 54 52 50 48 46 44 42 42 41 39 39 38 34 31 29 28 27 22 19 16 13 11 8 6 4 360 358 360 359 355 353
248 245 252 253 252 257 206 120 76 6 235 197 200 234 184 179 185 181 181 186 192 185 176 179 172 169 167 158 151 142 130 120 118 109 97 91 86 84 80 78 78 79 81 84 87 88 88 87 86 84 84 85 82 77 74 72 67 64 64 63 64 63 61 59 56 54 52 51 49 47 45 43 41 40 39 37 35 35 32 30 27 25 24 22 20 17 13 11 9 5 2 358 356 354 353 354 353
238 248 254 253 244 251 81 117 121 50 256 197 156 212 204 190 189 181 181 190 200 195 188 187 178 173 170 162 156 144 133 132 132 124 112 104 95 91 86 82 80 78 78 80 82 84 86 86 85 83 82 81 79 77 74 71 72 74 72 68 69 68 65 62 58 54 50 48 46 44 43 41 39 37 36 34 32 31 29 28 25 23 21 20 19 15 12 10 8 6 1 356 353 351 348 350 353
231 243 252 255 240 222 126 134 122 97 258 204 163 213 217 191 191 190 192 203 208 200 197 192 181 178 174 166 160 152 148 147 145 139 128 120 109 100 94 87 84 80 77 78 79 80 82 82 83 84 84 80 79 81 79 76 78 81 82 79 75 71 66 61 56 53 49 45 43 41 40 38 36 34 32 31 29 27 26 25 23 20 19 18 15 11 9 8 6 4 0 355 349 347 347 347 353
228 229 248 251 195 217 237 163 130 95 319 203 171 221 228 185 193 207 206 211 209 202 204 197 189 186 177 170 164 160 161 156 152 148 141 134 124 113 105 96 91 87 81 79 78 78 78 79 83 84 84 82 81 82 80 78 76 74 75 72 70 67 63 59 53 48 45 42 39 37 36 35 33 31 28 27 26 24 23 22 21 19 17 16 12 8 5 4 3 360 357 354 348 344 343 344 350
226 221 238 250 216 221 261 123 138 133 78 146 169 246 245 191 196 210 197 202 211 203 199 196 193 187 172 165 167 168 166 161 157 154 151 146 136 124 116 109 103 96 89 85 81 81 82 82 84 83 83 82 81 80 77 74 71 66 64 63 62 59 54 51 45 39 37 37 35 33 32 30 29 26 24 24 22 21 20 19 19 18 16 13 10 6 2 360 359 357 354 351 347 342 337 337 344
237 218 225 246 249 227 168 133 166 238 229 175 186 265 261 178 192 202 172 188 213 204 201 200 188 180 174 170 172 170 165 163 160 156 154 150 142 134 127 121 116 106 98 92 87 88 87 84 83 80 80 80 79 78 74 70 68 65 62 60 57 53 49 45 40 34 31 32 31 30 28 25 24 23 21 21 20 20 19 18 18 16 13 10 6 4 359 357 355 354 353 348 344 342 335 333 339
258 214 217 238 247 229 185 168 196 260 264 143 203 260 274 195 192 189 171 195 213 205 206 204 190 183 183 180 175 169 166 164 160 158 156 153 149 145 138 132 126 118 110 103 94 90 88 85 84 80 78 77 75 74 72 68 64 63 62 61 57 54 52 45 38 35 34 32 30 28 26 22 22 21 21 20 20 19 19 19 17 14 11 6 3 2 357 355 353 349 350 347 344 343 340 336 335
272 99 179 208 212 214 198 191 216 258 335 131 200 237 273 261 203 164 178 202 219 215 211 205 196 191 186 182 175 170 169 166 161 161 160 158 155 151 145 139 133 127 121 112 102 92 88 86 84 82 78 75 74 71 70 69 65 62 61 59 57 55 53 46 38 34 33 31 29 26 24 22 20 20 20 19 19 18 17 17 15 10 6 0 359 358 352 352 350 347 349 349 347 347 345 341 335
334 100 173 179 186 203 197 210 235 250 298 243 200 179 261 260 172 116 184 211 233 227 215 204 196 190 185 180 174 169 168 166 165 165 162 160 157 152 147 142 138 133 126 119 110 99 91 86 83 82 78 74 72 69 67 67 65 64 60 58 57 51 48 44 37 33 29 27 26 23 22 20 19 19 17 16 16 15 13 12 11 8 1 355 353 350 347 350 349 348 351 350 349 349 347 345 339
96 128 126 110 117 133 181 228 240 215 250 255 211 178 238 273 174 148 191 226 240 233 215 202 191 185 182 176 171 168 165 166 167 164 161 159 156 152 149 144 141 137 130 123 114 104 95 89 84 81 77 72 70 67 64 63 63 62 59 58 57 49 48 43 36 33 26 24 22 19 18 15 15 15 12 13 12 10 11 8 6 6 1 353 352 348 346 350 350 349 351 350 350 351 348 347 343
135 156 141 130 145 139 183 227 223 247 251 255 218 191 216 269 186 166 188 221 232 224 193 180 178 179 179 175 171 168 166 166 164 161 158 156 154 152 152 149 147 143 136 130 122 113 104 96 89 84 78 73 69 65 63 61 59 59 58 57 55 49 46 41 35 31 23 22 19 14 13 10 10 8 5 8 6 5 10 6 2 5 1 352 351 351 349 351 351 349 350 351 353 354 349 346 343
185 210 222 239 225 182 209 197 176 245 252 283 63 199 212 240 220 178 190 133 105 196 177 171 175 178 177 173 170 167 166 164 160 160 159 157 157 158 158 157 153 151 147 140 133 124 115 107 99 93 84 77 71 64 62 60 57 58 56 51 48 42 39 36 33 28 21 17 13 8 6 3 1 359 358 1 359 2 6 3 0 3 359 353 353 354 353 354 354 351 350 350 353 355 348 346 343
220 226 215 249 268 258 244 226 198 245 253 79 62 202 222 243 256 213 177 137 100 70 148 173 173 175 174 170 167 165 163 163 162 162 163 163 164 164 164 163 159 159 157 150 144 136 127 121 111 100 90 80 72 66 61 59 56 52 47 43 39 34 31 30 27 24 18 12 7 2 358 356 352 349 351 351 352 358 1 358 358 359 357 355 355 355 355 356 356 352 348 347 350 348 341 343 343
204 214 213 238 256 269 255 242 252 262 274 74 89 250 252 255 270 30 93 67 57 44 336 184 173 171 170 166 163 162 161 163 165 165 166 168 168 167 166 166 166 164 161 157 153 148 139 131 123 107 95 84 78 75 63 54 48 42 39 36 33 29 25 24 22 17 12 5 0 354 349 349 345 342 343 344 349 355 356 354 355 355 355 355 355 354 355 356 354 351 347 344 343 341 336 339 340
198 203 231 248 242 252 261 262 283 298 335 94 150 188 253 247 221 60 39 27 26 8 177 166 163 161 160 158 159 161 163 166 168 168 169 170 169 168 168 168 169 166 164 162 158 155 150 141 137 122 108 99 87 79 61 50 43 35 32 29 27 24 20 20 16 7 3 354 351 348 341 342 341 337 338 341 348 352 352 353 354 354 354 354 354 353 353 353 350 349 348 340 339 341 335 334 336
181 119 210 248 242 229 277 297 301 328 311 259 185 216 259 238 108 119 114 75 74 77 134 145 150 151 152 159 163 165 167 168 169 170 170 170 168 169 169 168 168 167 165 165 163 161 159 153 149 139 124 117 95 78 60 47 38 28 25 21 18 15 14 14 2 354 355 344 344 344 335 338 340 337 338 343 349 350 349 351 352 352 352 352 351 350 350 349 347 348 346 338 338 339 333 331 332
144 169 202 208 16 314 260 267 120 214 274 262 201 241 261 224 185 154 140 183 136 130 154 152 152 156 159 167 170 170 171 169 170 170 169 169 169 169 170 168 168 168 167 167 166 164 160 157 155 149 139 128 104 83 70 43 27 22 16 11 10 8 5 3 347 344 346 338 338 338 334 338 340 339 341 344 348 348 348 348 348 348 349 348 348 347 346 345 345 345 341 336 335 334 330 331 329
166 198 179 121 77 332 245 261 273 252 263 267 216 247 259 247 252 120 156 218 196 171 171 164 162 168 171 174 173 171 169 167 168 169 168 169 169 169 169 169 169 168 167 165 163 160 158 157 157 153 146 139 126 111 79 20 7 9 6 2 4 1 354 350 341 338 339 334 335 336 334 338 340 340 340 342 344 345 345 345 344 344 345 344 344 343 342 342 342 341 338 335 333 329 327 326 325
319 254 111 128 235 219 165 223 269 258 265 273 237 246 255 237 230 183 204 215 197 180 177 177 179 179 178 176 172 170 167 166 168 168 169 169 169 169 168 167 168 166 164 162 160 160 157 156 156 154 150 145 135 126 5 352 352 356 356 354 355 351 345 343 338 334 333 329 330 333 335 336 337 337 337 338 341 343 342 341 341 341 341 341 341 340 340 340 340 337 334 332 328 325 322 321 322
34 229 183 218 263 245 193 166 267 257 266 279 270 271 257 226 205 203 216 199 175 176 183 189 188 184 182 176 172 172 170 169 170 168 169 168 168 169 168 167 166 164 162 161 161 162 161 159 158 157 156 157 152 320 332 342 343 343 346 347 344 341 340 338 333 331 330 328 328 332 335 335 334 334 336 338 340 340 339 339 338 339 339 338 338 337 336 336 336 333 330 326 324 322 320 318 318
179 203 198 193 175 5 305 245 224 245 261 270 274 277 271 196 135 185 181 144 174 180 184 189 186 183 184 179 173 173 171 170 169 166 167 167 165 166 167 166 164 163 164 164 164 165 165 164 167 173 176 189 231 303 324 328 331 333 338 342 337 336 336 332 331 331 330 330 331 331 332 332 332 334 335 336 337 337 336 335 335 336 336 335 334 333 333 332 331 329 325 322 322 321 318 316 315
210 214 207 201 184 153 235 240 212 200 254 253 261 274 273 102 67 59 85 69 194 185 180 180 182 183 182 179 175 172 169 167 166 165 164 163 164 165 166 166 165 167 168 168 168 168 170 173 183 197 204 223 262 302 315 316 321 328 335 340 338 335 332 329 330 330 329 329 331 331 330 330 331 332 332 333 334 333 332 332 331 332 333 332 331 330 329 328 326 325 322 319 318 317 314 313 312